Printer-friendly version

IAU Minor Planet Center

Minor Planet Center

MPEC 2007-T102: 2007 TF68

The following Minor Planet Electronic Circular may be linked-to from your own Web pages, but must not otherwise be redistributed electronically.


Read MPEC 2007-T101 Read MPEC 2007-T103


M.P.E.C. 2007-T102                               Issued 2007 Oct. 13, 20:32 UT

     The Minor Planet Electronic Circulars contain information on unusual
         minor planets and routine data on comets.  They are published
   on behalf of Commission 20 of the International Astronomical Union by the
          Minor Planet Center, Smithsonian Astrophysical Observatory,
                          Cambridge, MA 02138, U.S.A.

             Prepared using the Tamkin Foundation Computer Network

                              MPC@CFA.HARVARD.EDU
          URL http://www.cfa.harvard.edu/iau/mpc.html  ISSN 1523-6714

                                   2007 TF68

Observations:
     K07T68F* C2007 10 13.25032 01 15 58.86 +08 52 20.6          19.6 V ET102703
     K07T68F  C2007 10 13.25743 01 15 55.83 +08 53 15.6          19.8 V ET102703
     K07T68F  C2007 10 13.26454 01 15 52.92 +08 54 11.4          19.8 V ET102703
     K07T68F  C2007 10 13.27164 01 15 50.00 +08 55 07.1          19.1 V ET102703
     K07T68F  C2007 10 13.33917 01 15 21.99 +09 03 51.3          19.4 V ET102703
     K07T68F  C2007 10 13.34044 01 15 21.45 +09 04 00.6          19.1 V ET102703
     K07T68F  C2007 10 13.34175 01 15 20.95 +09 04 10.2          19.3 V ET102703
     K07T68F  C2007 10 13.39802 01 14 57.70 +09 11 29.3          20.4 V ET102703
     K07T68F  C2007 10 13.39855 01 14 57.39 +09 11 31.9          19.9 V ET102703
     K07T68F  C2007 10 13.39909 01 14 57.23 +09 11 36.2          19.4 V ET102703
     K07T68F  C2007 10 13.39962 01 14 57.01 +09 11 39.9          20.4 V ET102703
     K07T68F  C2007 10 13.81134 01 12 15.65 +10 05 13.5          19.1 R ET102024
     K07T68F  C2007 10 13.81664 01 12 13.48 +10 05 55.0          19.4 R ET102024
     K07T68F  C2007 10 13.82196 01 12 11.27 +10 06 37.1          19.2 R ET102024

Observer details:
024 Heidelberg-Konigstuhl.  Observer F. Hormuth.  0.70-m reflector + CCD.
703 Catalina Sky Survey.  Observer A. R. Gibbs.  Measurers E. C. Beshore,
    A. Boattini, G. J. Garradd, A. R. Gibbs, A. D. Grauer, R. E. Hill,
    R. A. Kowalski, S. M. Larson, R. H. McNaught.  0.68-m Schmidt + CCD.

Orbital elements:
2007 TF68                                                Earth MOID = 0.1550 AU
Epoch 2007 Oct. 27.0 TT = JDT 2454400.5                 MPC
M 331.26633              (2000.0)            P               Q
n   0.59753082     Peri.   58.90920     +0.23220331     -0.96140569
a   1.3960335      Node    19.40243     +0.66998095     +0.04809582
e   0.2450133      Incl.   26.37587     +0.70512917     +0.27089831
P   1.65           H   23.1           G   0.15           U   9
Residuals in seconds of arc
071013 703  0.9+  0.1-    071013 703  0.5-  0.3-    071013 703  0.2+  0.6-
071013 703  0.5-  0.4-    071013 703  0.1+  0.8-    071013 024  0.2-  0.3+
071013 703  0.1-  0.2+    071013 703  0.7+  1.3+    071013 024  0.1+  0.1-
071013 703  0.1+  0.7+    071013 703  0.7-  0.2-    071013 024  0.0   0.2-
071013 703  0.3-  0.3+    071013 703  0.3+  0.1-

Ephemeris:
2007 TF68                a,e,i = 1.40, 0.25, 26                  q = 1.0540
Date    TT    R. A. (2000) Decl.     Delta      r     Elong.  Phase     V
2007 10 07    01 51.09   -02 58.3    0.192    1.184   162.4    14.8    20.7
2007 10 09    01 41.13   +00 26.2    0.182    1.177   167.5    10.6    20.4
2007 10 11    01 29.98   +04 13.0    0.174    1.171   172.9     6.0    20.1
2007 10 13    01 17.60   +08 20.4    0.167    1.165   178.1     1.6    19.8
2007 10 15    01 04.00   +12 44.2    0.162    1.158   174.3     4.9    19.9
2007 10 17    00 49.22   +17 18.1    0.159    1.152   167.9    10.5    20.1
2007 10 19    00 33.36   +21 54.0    0.157    1.146   161.2    16.3    20.3
2007 10 21    00 16.58   +26 23.0    0.158    1.140   154.6    22.0    20.4
2007 10 23    23 59.11   +30 36.7    0.161    1.135   148.1    27.6    20.6
2007 10 25    23 41.21   +34 28.9    0.165    1.129   142.0    32.9    20.8
2007 10 27    23 23.18   +37 55.5    0.171    1.124   136.3    37.7    21.0
2007 10 29    23 05.34   +40 55.2    0.178    1.118   131.0    42.1    21.2
2007 10 31    22 47.97   +43 28.5    0.186    1.113   126.3    46.0    21.4
2007 11 02    22 31.32   +45 37.6    0.195    1.108   122.0    49.4    21.6
2007 11 04    22 15.58   +47 25.5    0.205    1.104   118.1    52.5    21.8
2007 11 06    22 00.87   +48 55.2    0.216    1.099   114.6    55.1    22.0

Timothy B. Spahr             (C) Copyright 2007 MPC           M.P.E.C. 2007-T102

Read MPEC 2007-T101 Read MPEC 2007-T103


Our Web policy. Index to the CBAT/MPC/ICQ pages.


Valid HTML 4.01!